DW7121 Weather Reports


time (UTC)temp
C
wind
direction
speed
KPH
gust
KPH
rain 1hr
cm
rain 24hr
cm
rain mn
cm
humidity
%
barometer
mb
20220629043105 16 146 0.0 0.0 0.00 0.00 0.00 95 1014.2
20220629041549 16 145 0.0 0.0 0.00 0.00 0.00 95 1014.1
20220629040100 16 165 0.0 0.0 0.00 0.00 0.00 94 1014.0
20220629034549 17 165 0.0 0.0 0.00 0.00 0.00 93 1013.9
20220629033049 17 181 0.0 0.0 0.00 0.00 0.00 92 1013.9
20220629031559 17 166 0.0 0.0 0.00 0.00 0.00 92 1013.5
20220629030048 17 162 0.0 0.0 0.00 0.00 0.00 90 1013.5
20220629024547 18 153 0.0 1.6 0.00 0.00 0.00 87 1013.4
20220629023049 18 172 0.0 0.0 0.00 0.00 0.00 83 1013.4
20220629021549 19 141 0.0 0.0 0.00 0.00 0.00 83 1013.4
20220629020047 20 216 0.0 0.0 0.00 0.00 0.00 81 1013.2
20220629014545 21 255 0.0 1.6 0.00 0.00 0.00 77 1013.3
20220629013045 21 203 0.0 0.0 0.00 0.00 0.00 75 1013.1
20220629011545 22 179 0.0 1.6 0.00 0.00 0.00 74 1013.1
20220629010043 22 211 0.0 1.6 0.00 0.00 0.00 74 1013.2
20220629004542 23 176 0.0 1.6 0.00 0.00 0.00 72 1013.1
20220629003042 23 187 0.0 6.4 0.00 0.00 0.00 72 1013.2
20220629001541 24 148 0.0 0.0 0.00 0.00 0.00 69 1013.4
20220629000039 25 158 0.0 3.2 0.00 0.00 0.00 69 1013.5
20220628234536 25 186 0.0 0.0 0.00 0.00 0.00 68 1013.6
20220628233035 25 157 0.0 8.0 0.00 0.00 0.00 66 1013.7
20220628231538 26 149 0.0 6.4 0.00 0.00 0.00 64 1013.8
20220628230032 26 141 0.0 3.2 0.00 0.00 0.00 63 1013.9
20220628224533 28 212 0.0 0.0 0.00 0.00 0.00 60 1014.1
20220628223034 27 174 0.0 0.0 0.00 0.00 0.00 60 1014.1
20220628221533 28 203 0.0 0.0 0.00 0.00 0.00 60 1014.4
20220628220026 26 283 0.0 4.8 0.00 0.00 0.00 63 1014.4
20220628214523 27 188 0.0 0.0 0.00 0.00 0.00 63 1014.4
20220628213022 26 276 0.0 8.0 0.00 0.00 0.00 65 1014.4
20220628211521 26 174 0.0 4.8 0.00 0.00 0.00 64 1014.6
20220628210018 25 264 0.0 9.7 0.00 0.00 0.00 69 1014.8
20220628204529 25 259 0.0 8.0 0.00 0.00 0.00 67 1014.9
20220628203017 26 309 0.0 9.7 0.00 0.00 0.00 68 1015.0
20220628201514 25 302 0.0 6.4 0.00 0.00 0.00 69 1015.1
20220628200012 23 293 0.0 4.8 0.00 0.00 0.00 73 1015.3
20220628194511 24 314 0.0 8.0 0.00 0.00 0.00 72 1015.4
20220628193012 23 291 0.0 8.0 0.00 0.00 0.00 73 1015.6
20220628191523 24 279 0.0 6.4 0.00 0.00 0.00 70 1015.6
20220628190007 23 286 0.0 4.8 0.00 0.00 0.00 71 1015.7
20220628184509 23 281 0.0 1.6 0.00 0.00 0.00 74 1015.7
20220628183003 22 276 0.0 6.4 0.00 0.00 0.00 76 1015.7
20220628181504 21 298 0.0 9.7 0.00 0.00 0.00 78 1015.8
20220628180103 22 286 0.0 9.7 0.00 0.00 0.00 77 1015.7
20220628174614 21 277 0.0 6.4 0.00 0.00 0.00 76 1015.7
20220628173058 22 326 0.0 6.4 0.00 0.00 0.00 77 1015.6
20220628171558 22 39 0.0 1.6 0.00 0.00 0.00 76 1015.6
20220628170057 21 297 0.0 4.8 0.00 0.00 0.00 79 1015.5
20220628164556 21 256 0.0 3.2 0.00 0.00 0.00 79 1015.6
20220628163055 22 298 0.0 3.2 0.00 0.00 0.00 77 1015.5
20220628161606 22 252 0.0 1.6 0.00 0.00 0.00 79 1015.5
20220628160051 22 252 0.0 0.0 0.00 0.00 0.00 82 1015.5
20220628154558 21 252 0.0 0.0 0.00 0.00 0.00 82 1015.5
20220628153049 20 276 0.0 0.0 0.00 0.00 0.00 83 1015.4
20220628151546 20 291 0.0 0.0 0.00 0.00 0.00 88 1015.3
20220628150051 18 291 0.0 1.6 0.00 0.00 0.00 88 1015.4
20220628144543 18 276 0.0 0.0 0.00 0.00 0.00 92 1015.1
20220628143044 18 297 0.0 0.0 0.00 0.00 0.00 92 1014.9
20220628141640 18 308 0.0 0.0 0.00 0.00 0.00 90 1015.0
20220628140039 17 142 0.0 0.0 0.00 0.00 0.00 91 1015.0
20220628134538 16 161 0.0 0.0 0.00 0.00 0.00 95 1014.6
20220628133037 16 160 0.0 0.0 0.00 0.00 0.00 94 1014.6
20220628131536 16 160 0.0 0.0 0.00 0.00 0.00 93 1014.4
20220628130036 16 161 0.0 0.0 0.00 0.00 0.00 93 1014.5
20220628124535 16 160 0.0 0.0 0.00 0.00 0.00 92 1014.4
20220628123038 16 160 0.0 0.0 0.00 0.00 0.00 90 1014.1
20220628121532 16 142 0.0 0.0 0.00 0.00 0.00 96 1014.1
20220628120032 15 167 0.0 0.0 0.00 0.00 0.00 97 1014.2
20220628114536 15 168 0.0 0.0 0.00 0.00 0.00 96 1014.4
20220628113028 15 167 0.0 0.0 0.00 0.00 0.00 96 1014.4
20220628111525 15 168 0.0 0.0 0.00 0.00 0.00 93 1014.4
20220628110024 15 168 0.0 0.0 0.00 0.00 0.00 94 1014.2
20220628104523 15 168 0.0 0.0 0.00 0.00 0.00 94 1014.4
20220628103022 16 167 0.0 0.0 0.00 0.00 0.00 94 1014.3
20220628101531 16 167 0.0 0.0 0.00 0.00 0.00 96 1014.4
20220628100019 16 168 0.0 0.0 0.00 0.00 0.00 96 1014.3
20220628094515 -17 0.0 0.0 0.00 0.00 0.00 1014.6
20220628093011 16 172 0.0 0.0 0.00 0.00 0.00 98 1014.6
20220628091509 15 174 0.0 0.0 0.00 0.00 0.00 98 1014.8
20220628090009 15 184 0.0 0.0 0.00 0.00 0.00 96 1014.9
20220628084506 15 184 0.0 0.0 0.00 0.00 0.00 96 1014.9
20220628083005 15 184 0.0 0.0 0.00 0.00 0.00 94 1015.0
20220628081504 16 184 0.0 0.0 0.00 0.00 0.00 94 1015.0
20220628080004 16 184 0.0 0.0 0.00 0.00 0.00 92 1014.9
20220628074603 16 184 0.0 0.0 0.00 0.00 0.00 92 1015.0
20220628073059 17 145 0.0 0.0 0.00 0.00 0.00 89 1014.9
20220628071556 17 145 0.0 0.0 0.00 0.00 0.00 92 1014.7
20220628070054 17 145 0.0 0.0 0.00 0.00 0.00 93 1014.8
20220628064602 16 145 0.0 0.0 0.00 0.00 0.00 93 1014.9
20220628063058 16 145 0.0 0.0 0.00 0.00 0.00 94 1014.8
20220628061552 16 145 0.0 0.0 0.00 0.00 0.00 96 1014.9
20220628060051 16 145 0.0 0.0 0.00 0.00 0.00 96 1015.2
20220628054553 16 146 0.0 0.0 0.00 0.00 0.00 96 1015.1
20220628053051 16 145 0.0 0.0 0.00 0.00 0.00 96 1015.2
20220628051550 16 145 0.0 0.0 0.00 0.00 0.00 95 1015.1
20220628050049 17 183 0.0 0.0 0.00 0.00 0.00 94 1014.7
20220628044549 17 176 0.0 0.0 0.00 0.00 0.00 92 1014.7